URMN Weather Reports


Display with metric or nautical units.
time (UTC)temp
F
wind
direction
speed
MPH
gust
MPH
rain 1hr
in
rain 24hr
in
rain mn
in
humidity
%
barometer
mb
20260507220043 53 210 7.0 0.0 0.00 0.00 0.00 62 1018.0
20260507213042 53 210 7.0 0.0 0.00 0.00 0.00 62 1018.0
20260507210043 53 230 7.0 0.0 0.00 0.00 0.00 66 1018.0
20260507203043 53 230 7.0 0.0 0.00 0.00 0.00 66 1018.0
20260507200043 50 230 7.0 0.0 0.00 0.00 0.00 76 1018.0
20260507193044 50 230 7.0 0.0 0.00 0.00 0.00 76 1018.0
20260507190044 57 260 4.0 0.0 0.00 0.00 0.00 58 1018.0
20260507180044 55 240 4.0 0.0 0.00 0.00 0.00 62 1017.0
20260507173044 55 240 4.0 0.0 0.00 0.00 0.00 62 1017.0
20260507170044 62 230 2.0 0.0 0.00 0.00 0.00 45 1017.0
20260507163046 62 230 2.0 0.0 0.00 0.00 0.00 45 1017.0
20260507160043 62 350 7.0 0.0 0.00 0.00 0.00 51 1017.0
20260507150043 64 300 9.0 0.0 0.00 0.00 0.00 48 1017.0
20260507143044 64 300 9.0 0.0 0.00 0.00 0.00 48 1017.0
20260507140049 60 310 9.0 0.0 0.00 0.00 0.00 55 1017.0
20260507133044 60 310 9.0 0.0 0.00 0.00 0.00 55 1017.0
20260507130044 62 300 13.0 0.0 0.00 0.00 0.00 59 1017.0
20260507123044 62 300 13.0 0.0 0.00 0.00 0.00 59 1017.0
20260507120043 60 270 11.0 0.0 0.00 0.00 0.00 63 1017.0
20260507113043 60 270 11.0 0.0 0.00 0.00 0.00 63 1017.0
20260507110044 64 260 11.0 0.0 0.00 0.00 0.00 48 1017.0
20260507100043 66 340 4.0 0.0 0.00 0.00 0.00 42 1017.0
20260507093046 68 30 4.0 0.0 0.00 0.00 0.00 39 1017.0
20260507090043 68 30 4.0 0.0 0.00 0.00 0.00 39 1018.0
20260507083044 64 300 2.0 0.0 0.00 0.00 0.00 45 1018.0
20260507080045 66 260 4.0 0.0 0.00 0.00 0.00 42 1018.0
20260507073043 66 220 9.0 0.0 0.00 0.00 0.00 45 1018.0
20260507070045 62 240 9.0 0.0 0.00 0.00 0.00 48 1018.0
20260507060043 59 220 7.0 0.0 0.00 0.00 0.00 58 1018.0
20260507053043 57 210 7.0 0.0 0.00 0.00 0.00 62 1018.0
20260507043045 53 220 7.0 0.0 0.00 0.00 0.00 71 1017.0
20260507040044 51 210 2.0 0.0 0.00 0.00 0.00 76 1017.0
20260507033044 51 210 2.0 0.0 0.00 0.00 0.00 76 1017.0
20260507030044 51 230 2.0 0.0 0.00 0.00 0.00 71 1016.0
20260507023045 51 230 2.0 0.0 0.00 0.00 0.00 71 1016.0
20260507020043 50 240 7.0 0.0 0.00 0.00 0.00 76 1016.0
20260507013044 50 240 7.0 0.0 0.00 0.00 0.00 76 1016.0
20260507010043 50 240 4.0 0.0 0.00 0.00 0.00 81 1016.0
20260507003045 50 240 4.0 0.0 0.00 0.00 0.00 81 1016.0
20260506233045 46 240 4.0 0.0 0.00 0.00 0.00 87 1015.0
20260506230044 48 230 2.0 0.0 0.00 0.00 0.00 81 1015.0
20260506223044 48 230 2.0 0.0 0.00 0.00 0.00 81 1015.0